Voltar ao catálogo

DELTA 1 DEB

AtivoSSO
NORAD 37669·DEBRIS·🇺🇸 United States

Lançado Mar 5, 1978 de Vandenberg Space Force Base

Loading…

Próximas Passagens (próximas 24 horas)

TLE

AtualizadoSource: Space-Track

Época: Sep 14, 2026, 08:08 UTC

1 37669U 78026KG  26257.33924949  .00000045  00000-0  55880-4 0  9998
2 37669  99.1459 290.3279 0011098 222.1553 202.7465 14.05492682282000

Acompanhe DELTA 1 DEB em tempo real com AllMySat

Download on the App Store